Regional Weather Roundup
Issued by NWS Grand Forks, ND

Home | Current Version | Previous Version | Graphics & Text | Print | Product List | Glossary On
Versions: 1 2 3 4 5 6 7 8 9 10 11 12 13 14 15 16 17 18 19 20 21 22 23 24 25 26 27 28 29 30 31 32 33 34 35 36 37 38 39 40 41 42 43 44 45 46 47 48 49 50
000
ASUS43 KFGF 121710
RWRFGF
PRAIRIE TO PINES  WEATHER ROUNDUP
NATIONAL WEATHER SERVICE EASTERN NORTH DAKOTA/GRAND FORKS ND
1200 PM CDT SAT JUL 12 2014

 **SATELLITE DATA USED TO AUGMENT SKY COVER AT AUTOMATED STATIONS**
 *****  WEATHER ACROSS EASTERN NORTH DAKOTA  *****

CITY           SKY/WX    TMP DP  RH WIND       PRES   REMARKS
GRAND FORKS    CLOUDY    74  59  59 SW10      30.01F
GRAND FRKS AFB NOT AVBL
GRAND FRKS NWS   N/A     77 N/A N/A SW14        N/A
DEVILS LAKE    MOSUNNY   73  55  53 W15       30.03F
FARGO          CLOUDY    73  58  59 W8        30.03S
WAHPETON ARPT  CLOUDY    68  59  73 W8        30.06S
$$

 ***** WEATHER ACROSS CENTRAL AND WESTERN NORTH DAKOTA  *****

CITY           SKY/WX    TMP DP  RH WIND       PRES   REMARKS
BISMARCK       MOSUNNY   74  60  61 SW9       30.10F
MINOT          SUNNY     74  53  48 W14       30.06F
JAMESTOWN      CLOUDY    73  58  59 SW9       30.05F
MINOT AFB      NOT AVBL
GARRISON         N/A     72  59  63 W12       30.09F
WILLISTON      SUNNY     79  53  40 W16       30.11S
DICKINSON      PTSUNNY   72  61  68 W7        30.14S
HETTINGER      MOSUNNY   70  60  70 VRB5      30.16S
$$

 *****  OTHER AIRPORT OBSERVATIONS IN OUR AREA  *****

CITY           SKY/WX    TMP DP  RH WIND       PRES   REMARKS
WALHALLA       FAIR      73  55  53 W15G22      N/A
GRAFTON AIRPOR FAIR      73  55  53 W15G21    30.00F
VALLEY CITY AR FAIR      72  59  64 SW9       30.05F
CANDO          FAIR      73  55  53 W16       30.03F
CAVALIER APRT  FAIR      73  54  49 W13G20    29.99F
GWINNER        SUNNY     68  63  83 SW7       30.07F
SHEYENNE NWR     N/A     68  62  82 SW5       29.95
ROLLA            N/A     72  54  53 W17       30.04F
 ***** THE ABOVE OBSERVATIONS ARE NON NWS ARE NOT QUALITY
       CONTROLLED AND MAY MIS-REPORT RAIN FOR SNOW...
$$

  *****  WEATHER ACROSS NORTHERN MINNESOTA  *****

CITY           SKY/WX    TMP DP  RH WIND       PRES   REMARKS
FLAG ISLAND    MOSUNNY   70  57  64 S12       29.95F
WARROAD        MOSUNNY   73  59  60 SW8G16    29.98F
ROSEAU         MOSUNNY   73  59  60 SW12G17   29.98F
HALLOCK        MOSUNNY   73  55  53 W12       29.98F
THF RVR FALLS  PTSUNNY   70  57  64 SW7       30.02S
BAUDETTE       PTSUNNY   71  56  58 S9        30.00F
WASKISH        PTSUNNY   72  61  68 SW6       30.01S
CROOKSTON      PTSUNNY   70  59  68 W9        30.03S
$$
  *****  WEATHER ACROSS CENTRAL AND WEST MINNESOTA  *****

CITY           SKY/WX    TMP DP  RH WIND       PRES   REMARKS
FOSSTON        CLOUDY    72  57  60 W10       30.03F
BEMIDJI        CLOUDY    73  57  56 SW8       30.02S
PARK RAPIDS    CLOUDY    70  59  68 W8        30.03F
ELBOW LAKE     FAIR      66  63  88 W9        30.06F
WADENA         CLOUDY    68  61  77 W6        30.04R
DETROIT LAKES  CLOUDY    70  57  64 NW6       30.05F
MOORHEAD       CLOUDY    72  61  68 W6        30.04F
FERGUS FALLS   CLOUDY    68  61  77 W8        30.06R
MORRIS MN      CLOUDY    70  63  78 NW9       30.06S
STAPLES        CLOUDY    68  59  73 NW5       30.03R
$$
  *****  WEATHER ELSEWHERE ACROSS MINNESOTA  *****

CITY           SKY/WX    TMP DP  RH WIND       PRES   REMARKS
DULUTH         CLOUDY    72  56  57 VRB3      30.00R
INTRNTL FALLS  PTSUNNY   73  46  38 W6        29.99F
ELY            PTSUNNY   72  55  56 W6        29.99F
CLOQUET        CLOUDY    72  55  56 S3        30.00S
WHEATON        CLOUDY    66  59  77 W3        30.08F
BRAINERD       CLOUDY    75  59  57 CALM      30.02R
HIBBING        CLOUDY    73  53  49 W5        29.99F
ALEXANDRIA     CLOUDY    69  60  73 SW8       30.07R
SAINT CLOUD    CLOUDY    74  64  71 NW3       30.00R
MINNEAPOLIS    CLOUDY    78  65  63 NW3       29.97F
$$

  *****  WEATHER ACROSS SOUTH DAKOTA  *****

CITY           SKY/WX    TMP DP  RH WIND       PRES   REMARKS
SIOUX FALLS    LGT RAIN  75  66  73 W3        30.06R
BROOKINGS      NOT AVBL
WATERTOWN      LGT RAIN  64  61  90 N9        30.09S
HURON          LGT RAIN  70  63  78 NE10      30.06F
SISSETON         N/A     69  62  78 NW8       30.06F
ABERDEEN       CLOUDY    65  62  90 E7        30.06F
MITCHELL       CLOUDY    75  67  76 N12       30.08S
PIERRE         MOSUNNY   71  62  73 E6        30.09R
MOBRIDGE       PTSUNNY   70  61  73 SW3       30.09R
RAPID CITY     CLOUDY    64  61  90 SE7       30.19S
$$

  *****  SOME WEATHER IN NEARBY STATES *****

CITY           SKY/WX    TMP DP  RH WIND       PRES   REMARKS
GLASGOW MT     NOT AVBL
GREAT FALLS MT SUNNY     76  54  46 CALM      30.24S
CHEYENNE WY    MOSUNNY   67  58  72 NE10G18   30.34R
SCOTTSBLUFF NE CLOUDY    69  59  70 SE7       30.23R
OMAHA NE       CLOUDY    82  71  69 SE5       29.97F
DES MOINES IA  CLOUDY    82  72  71 S8        29.98F
DAVENPORT IA   PTSUNNY   79  71  76 S8        30.03R
CHICAGO IL     CLOUDY    73  68  84 S16       30.01F
EAU CLAIRE WI  CLOUDY    73  70  90 CALM      29.98S
LA CROSSE WI   CLOUDY    76  70  82 NW6       29.96F
$$

  *****  SOME NATIONAL WEATHER *****

CITY           SKY/WX    TMP DP  RH WIND       PRES   REMARKS
LA GUARDIA NY  PTSUNNY   86  60  41 S13       30.19F
RALEIGH NC     PTSUNNY   87  68  52 VRB3      30.22F HX  90
ATLANTA GA     PTSUNNY   83  69  62 SE5       30.23F
NEW ORLEANS LA MOSUNNY   88  70  55 NE5       30.16S HX  93
OKLAHOMA CITY  SUNNY     89  64  43 SW14      30.13F HX  90
ALBUQUERQUE NM MOSUNNY   78  56  46 W5        30.26F
SALT LAKE CITY MOSUNNY   82  55  39 VRB3      30.19S
LOS ANGELES CA PTSUNNY   73  61  65 SW9       30.01R
BOISE ID       SUNNY     86  40  19 NW6       30.12S
SEATTLE WA     MOSUNNY   73  58  59 S5        30.12R
$$

*** WEATHER ACROSS MANITOBA...SASKATCHEWAN AND ONTARIO ***
                ***ONTARIO***

CITY           SKY/WX    TMP DP  RH WIND       PRES   REMARKS
GERALDTON      PTSUNNY   70  50  49 W6        29.91F
THUNDER BAY    PTSUNNY   75  54  46 NW8       29.94F
SIOUX LOOKOUT  MOSUNNY   70  48  46 SW7       29.94F
TORONTO        PTSUNNY   79  61  53 MISG      30.12F
BIG TROUT LK   SUNNY     68  48  49 W14       29.71F
PICKLE LAKE    MOSUNNY   70  45  40 W10G17    29.87F
DRYDEN         MOSUNNY   70  43  37 S7        29.95F
KENORA         PTSUNNY   72  48  43 SW12G21   29.96F
$$
                *** MANITOBA***

CITY           SKY/WX    TMP DP  RH WIND       PRES   REMARKS
BRANDON        MOSUNNY   75  54  46 W23       29.96F
DAUPHIN        TSTM      70  55  60 W22G29    29.84F
ISLAND LAKE    TSTM      55  54  94 NW21G31   29.66  FOG
PILOT MOUND      N/A     70  54  56 W12G20      N/A
THE PAS        PTSUNNY   61  41  48 NW21      29.83R
THOMPSON       LGT RAIN  55  54  94 W13G20    29.64F
WINNIPEG       MOSUNNY   73  54  49 W20       29.93F
LYNN LAKE      PTSUNNY   52  46  82 NW17G25   29.76S
CHURCHILL      LGT RAIN  43  43 100 NW20G25   29.46R FOG
GILLAM         CLOUDY    59  46  63 NW15G21   29.57F
$$
                ***SASKATCHEWAN***

CITY           SKY/WX    TMP DP  RH WIND       PRES   REMARKS
ESTEVAN        PTSUNNY   72  55  56 W12G17    30.08F
KINDERSLEY     MOSUNNY   72  55  56 NW14      30.15R
LLOYDMINSTER   PTSUNNY   66  50  55 N8        30.16R
PRINCE ALBERT  MOSUNNY   64  45  48 N20G26    30.03R
REGINA         SUNNY     73  55  53 W21G29    30.05S
YORKTON        LGT RAIN  61  57  88 NW20G26   29.97R
N. BATTLEFORD  SUNNY     68  52  56 NW17G24   30.13R
LA RONGE       MOSUNNY   63  39  42 NW16G26   30.00S
SASKATOON      MOSUNNY   68  52  56 N14G20    30.08R
SWIFT CURRENT  SUNNY     70  57  64 MISG      30.15S
$$
NOTE: THESE ARE AUTOMATED STATIONS WITH LIMITED QUALITY CONTROL
      "FAIR" INDICATES FEW OR NO CLOUDS BELOW 12,000 FEET WITH NO
      SIGNIFICANT WEATHER AND/OR OBSTRUCTIONS TO VISIBILITY.
      SKY/WX - SKY CONDITION AND SIGNIFICANT WEATHER.
      TMP - AIR TEMPERATURE.    DP   - DEWPOINT TEMPERATURE.
      RH  - RELATIVE HUMIDITY.  PRES - PRESSURE.
      HX  - HEAT INDEX.         WCI  - WIND CHILL INDEX.
$


USA.gov is the U.S. government's official web portal to all federal, state and local government web resources and services.